Facebook Twitter

Wetterstation Wiesbaden

Messwerte
  Temperatur Wetter Niederschlag Luftdruck Wind
So, 16:55 Uhr 20° - 1008 hPa 23 km/h W
So, 15:55 Uhr 20° - 1008 hPa 23 km/h W
So, 15:30 Uhr 20° - 1008 hPa 23 km/h W
So, 14:55 Uhr 21° - 1008 hPa 19 km/h W
So, 13:59 Uhr 22° - 1008 hPa 19 km/h SW

Böen 27 km/h
So, 12:56 Uhr 22° - 1009 hPa 19 km/h SW

Böen 27 km/h
So, 11:55 Uhr 20° - 1011 hPa 19 km/h SW

Böen 27 km/h
So, 10:55 Uhr 20° - 1011 hPa 23 km/h SW
So, 10:00 Uhr 17° - 1011 hPa 19 km/h S

Böen 27 km/h
So, 08:55 Uhr 17° - 1010 hPa 19 km/h SW

Böen 27 km/h
So, 07:02 Uhr 14° - 1010 hPa 11 km/h S
So, 05:59 Uhr 12° - 1010 hPa 2 km/h S
So, 04:56 Uhr 12° - 1010 hPa 10 km/h SW
So, 04:44 Uhr 16° - 1010 hPa 5 km/h SW
Sa, 17:55 Uhr 19° - 1007 hPa 23 km/h SW

Böen 37 km/h
Sa, 16:55 Uhr 20° - 1007 hPa 19 km/h SW

Böen 27 km/h
Sa, 15:55 Uhr 20° - 1007 hPa 19 km/h SW

Böen 27 km/h
Sa, 14:55 Uhr 21° - 1007 hPa 19 km/h SW

Böen 37 km/h
Sa, 13:55 Uhr 20° - 1007 hPa 23 km/h SW

Böen 40 km/h
Sa, 12:55 Uhr 20° - 1008 hPa 19 km/h SW

Böen 37 km/h

Alle Zeitangaben MESZ